This demonstration page uses our WeatherBlox Daily Observations layout. Learn more.

Left ArrowRight Arrow

Hourly Observations for June 11, 2020

Temp ( °F °C ) Dew Point ( °F °C ) Humidity (%) Winds ( mph kmh ) Pressure ( in mb ) Visibility ( mi km ) Precip ( " mm )
12:53 am 00:53 Clear 80 26.7 37 2.8 21 21 ESE 13 20 30.02 1017 10 16 0.00 0.00
1:53 am 01:53 Clear 77 25 41 5 28 28 ESE 14 22 30.01 1016 10 16 0.00 0.00
2:53 am 02:53 Clear 75 23.9 48 8.9 39 39 SE 12 19 30.02 1017 10 16 0.00 0.00
3:53 am 03:53 Clear 74 23.3 51 10.6 45 45 ESE 9 15 30.02 1017 10 16 0.00 0.00
4:53 am 04:53 Clear 72 22.2 51 10.6 48 48 SE 8 13 30.03 1017 10 16 0.00 0.00
5:53 am 05:53 Clear 71 21.7 50 10 47 47 SE 12 19 30.05 1018 10 16 0.00 0.00
6:53 am 06:53 Sunny 70 21.1 51 10.6 51 51 SE 14 22 30.08 1019 10 16 0.00 0.00
7:53 am 07:53 Sunny 72 22.2 51 10.6 48 48 SE 15 24 30.10 1019 10 16 0.00 0.00
8:53 am 08:53 Sunny 76 24.4 51 10.6 42 42 SE 21 33 30.11 1020 10 16 0.00 0.00
9:53 am 09:53 Sunny 80 26.7 50 10 35 35 SE 24 39 30.13 1020 10 16 0.00 0.00
10:53 am 10:53 Sunny 85 29.4 52 11.1 32 32 SE 21 33 30.13 1020 10 16 0.00 0.00
11:53 am 11:53 Sunny 88 31.1 55 12.8 33 33 SE 18 30 30.12 1020 10 16 0.00 0.00
12:53 pm 12:53 Sunny 91 32.8 55 12.8 30 30 SE 17 28 30.10 1019 10 16 0.00 0.00
1:53 pm 13:53 Sunny 92 33.3 56 13.3 30 30 ESE 21 33 30.09 1019 10 16 0.00 0.00
2:53 pm 14:53 Sunny 94 34.4 54 12.2 26 26 ESE 22 35 30.06 1018 10 16 0.00 0.00
3:53 pm 15:53 Sunny 94 34.4 52 11.1 24 24 SE 14 22 30.04 1017 10 16 0.00 0.00
4:53 pm 16:53 Sunny 95 35 51 10.6 23 23 SSE 20 31 30.02 1017 10 16 0.00 0.00
5:53 pm 17:53 Sunny 94 34.4 52 11.1 24 24 SE 14 22 30.03 1017 10 16 0.00 0.00
6:53 pm 18:53 Sunny 93 33.9 50 10 23 23 SE 15 24 30.03 1017 10 16 0.00 0.00
7:53 pm 19:53 Sunny 91 32.8 51 10.6 26 26 SSE 15 24 30.06 1018 10 16 0.00 0.00
8:53 pm 20:53 Sunny 89 31.7 49 9.4 25 25 SSE 10 17 30.09 1019 10 16 0.00 0.00
9:53 pm 21:53 Clear 85 29.4 51 10.6 31 31 SW 8 13 30.10 1019 8 13 0.00 0.00
10:53 pm 22:53 Clear 85 29.4 46 7.8 26 26 SSE 15 24 30.07 1018 10 16 0.00 0.00
11:53 pm 23:53 Clear 83 28.3 43 6.1 24 24 SSE 16 26 30.09 1019 10 16 0.00 0.00

Powered by AerisWeather